Location: Saluda
(35.2377°N, 82.3468°W)
Time: 16:43:09
(UTC+00:00)

Explorer 11/Cluster Stage 4 - Pass Details

Date: 12 October 2022
Orbit: 466 x 1247 km, 28.8° (Epoch: 08 December)

Event Time Altitude Azimuth Distance (km) Brightness Sun altitude
Rises 18:56:46 0° 266° (W) 4,180 10.7 41.0°
Reaches altitude 10° 19:00:49 10° 249° (WSW) 3,206 10.5 40.5°
Maximum altitude 19:05:49 18° 211° (SSW) 2,604 10.8 39.9°
Drops below altitude 10° 19:10:35 10° 172° (S) 3,035 10.2 39.3°
Sets 19:14:18 0° 154° (SSE) 3,873 10.4 38.9°
